Flag for Pakistan Weather past 2 weeks in Rawalpindi, Pakistan

Now
95 °F

Scattered clouds.


Feels Like: 110 °F
Forecast: 81 / 95 °F
Wind: 12 mph from Southwest

Location: Islamabad Airport

Current Time: Jul 29, 2015 at 3:31:54 PM

Latest Report: Jul 29, 2015 at 3:00 PM


Visibility: 3 mi

Pressure: 29.53 "Hg (27.93 "Hg at 501m altitude)

Humidity: 56%

Dew point: 77 °F

Location of RawalpindiLocation

Historic Weather in Rawalpindi — Graph

°F

Rawalpindi temperature yesterday

Maximum temperature yesterday: 90 °F (at 3:00 PM)
Minimum temperature yesterday: 75 °F (at 6:00 AM)
Average temperature yesterday: 82 °F

Past Weeks' High & Low Weather Summary

 TemperatureHumidityPressure
High100 °F (Jul 15, 5:00 PM)100% (Jul 17, 4:00 AM)30.01 "Hg (Jul 17, 4:00 AM)
Low68 °F (Jul 23, 1:00 PM)45% (Jul 15, 5:00 PM)29.33 "Hg (Jul 16, 5:00 PM)
Average84 °F75%29.61 "Hg
* Reported Jul 14 2:00 PM — Jul 29 2:00 PM, Rawalpindi, Weather by CustomWeather, © 2015

Note: Actual official high and low records may vary slightly from our data, if they occured in-between our weather recording intervals... More about our weather records

Advertising

Rawalpindi weather history for previous 24 hours

 ConditionsComfort  
Time TempWeatherWind HumidityBarometerVisibility
2:00 PM
Wed, Jul 29
93 °FScattered clouds.12 mph59%29.56 "Hg3 mi
1:00 PM93 °FScattered clouds.12 mph59%29.56 "Hg3 mi
12:00 PM91 °FPassing clouds.12 mph59%29.59 "Hg3 mi
11:00 AM90 °FPassing clouds.14 mph67%29.59 "Hg3 mi
9:00 AM88 °FPassing clouds.7 mph66%29.59 "Hg3 mi
8:00 AM86 °FPassing clouds.7 mph70%29.59 "Hg3 mi
4:00 AM79 °FPassing clouds.9 mph84%29.62 "Hg4 mi
3:00 AM81 °FPassing clouds.9 mph84%29.62 "Hg4 mi
2:00 AM81 °FPassing clouds.9 mph84%29.65 "Hg4 mi
1:00 AM81 °FPassing clouds.9 mph84%29.65 "Hg4 mi
12:00 AM81 °FPassing clouds.N/A84%29.68 "Hg4 mi
11:00 PM
Tue, Jul 28
84 °FPassing clouds.9 mph74%29.68 "Hg4 mi
10:00 PM84 °FPassing clouds.9 mph74%29.65 "Hg5 mi
9:00 PM84 °FPassing clouds.9 mph79%29.65 "Hg5 mi
8:00 PM86 °FPassing clouds.9 mph75%29.62 "Hg5 mi
7:00 PM86 °FPassing clouds.9 mph75%29.62 "Hg5 mi
6:00 PM88 °FScattered clouds.9 mph70%29.59 "Hg5 mi
5:00 PM90 °FScattered clouds.9 mph67%29.59 "Hg5 mi
4:00 PM90 °FScattered clouds.9 mph67%29.62 "Hg5 mi
3:00 PM90 °FScattered clouds.12 mph67%29.65 "Hg5 mi
Weather by CustomWeather, © 2015

See weather overviewHow to use our weather pages